Location: �quirre
(50.4736°N, 2.2351°E)
Time: 22:19:58
(UTC+00:00)

Cosmos 1354 Rocket - Pass Details

Date: 07 August 2020
Orbit: 765 x 782 km, 74.0° (Epoch: 22 September)

Event Time Altitude Azimuth Distance (km) Brightness Sun altitude
Exits shadow 00:16:37 46° 136° (SE) 1,053 4.4 -23.0°
Maximum altitude 00:17:26 50° 106° (ESE) 997 4.4 -23.0°
Drops below altitude 10° 00:22:35 10° 33° (NNE) 2,350 7.4 -22.9°
Sets 00:25:02 0° 28° (NNE) 3,282 8.5 -22.9°
